Погода в Гулёвке

Россия / Брянская область     52°36′37″N   32°13′31″E
темп.,
°C
ветер,
м/с
пор.,
м/с
влажн.,
%
обл.,
%
осадки,
мм/ч
давл.,
гПа
погр.,
м
17 апреля, сб
сб1700:00+6вюв369251 0.0 1016122
03:00+5вюв35945 0.0 101691
06:00+4вюв239445 0.0 101739
09:00+7вюв238289 0.0 1018450
12:00+9юв2271100 0.3 1019752
15:00+10св2165100 0.4 1018930
18:00+8зсз2482100 1.8 1017439
21:00+7юз5793100 7.8 1015551
18 апреля, вс
вс1800:00+7юз3697100 5.4 1013505
03:00+5вюв71097100 6.8 1012413
06:00+3вюв91496100 0.9 1014613
09:00+4в81292100 1.3 1016787
12:00+5в61094100 0.1 1017927
15:00+6в61087100 0.7 1018786
18:00+7в5882100 0.4 1018574
21:00+4всв339253 0.4 101944
19 апреля, пн
пн1900:00+4св359190 0.0 1018148
03:00+3св369233 0.0 1018152
06:00+4ссв51194100 0.0 1017649
09:00+5св61191100 0.2 1017525
12:00+7св6987100 0.0 1017661
15:00+8св688274 0.1 1016770
18:00+8св6108421 0.3 1016632
21:00+7св71387100 0.3 1015662
20 апреля, вт
вт2000:00+7всв61191100 0.0 1013525
03:00+7всв51094100 0.1 1012480
06:00+6всв51095100 0.6 1011538
09:00+7всв61088100 0.8 1009597
12:00+9св7979100 0.0 1007919
15:00+7ссв81188100 0.3 1004701
18:00+5с81294100 2.3 1000826
21:00+2ссз81497100 7.3 998553
21 апреля, ср
ср2100:00+2зсз81397100 2.2 997526
03:00+2з81497100 4.6 998706
06:00+4зюз81397100 0.8 9991084
09:00+5зюз81395100 1.0 10021095
12:00+9зюз9137179 0.1 10051487
15:00+10зюз7126689 0.4 10071616
18:00+10юз6968100 0.3 1009760
21:00+7ююз41083100 0.3 1012199